When you browse on this site, cookies collect data to enhance your experience and personalize the content and advertising you see.
Visit our Privacy Policy to learn more. By continuing to use the site, you agree to this use of cookies and data.

Hourly Weather Wien

Today, 15 August, Saturday

Time Temperature Precipitation Wind Pressure Humidity
00:00 +21°C° 0 mm 2 mps 742 mmHg 76%
01:00 +21°C° 0 mm 2 mps 742 mmHg 76%
02:00 +21°C° 0.1 mm 3 mps 742 mmHg 76%
03:00 +21°C° 0.1 mm 3 mps 742 mmHg 76%
04:00 +21°C° 0.1 mm 3 mps 741 mmHg 76%
05:00 +21°C° 0 mm 3 mps 742 mmHg 75%
06:00 +21°C° 0 mm 3 mps 742 mmHg 74%
07:00 +22°C° 0 mm 3 mps 742 mmHg 73%
08:00 +24°C° 0 mm 3 mps 742 mmHg 70%
09:00 +25°C° 0 mm 3 mps 742 mmHg 66%
10:00 +26°C° 0 mm 4 mps 742 mmHg 62%
11:00 +27°C° 0 mm 3 mps 742 mmHg 59%
12:00 +28°C° 0 mm 3 mps 741 mmHg 55%
13:00 +29°C° 0 mm 3 mps 741 mmHg 51%
14:00 +29°C° 0.1 mm 3 mps 741 mmHg 51%
15:00 +29°C° 0.1 mm 2 mps 741 mmHg 50%
16:00 +29°C° 0.1 mm 2 mps 741 mmHg 50%
17:00 +28°C° 0.9 mm 2 mps 740 mmHg 56%
18:00 +26°C° 0.9 mm 2 mps 740 mmHg 63%
19:00 +25°C° 0.9 mm 2 mps 740 mmHg 69%
20:00 +24°C° 0.4 mm 2 mps 741 mmHg 74%
21:00 +23°C° 0.4 mm 2 mps 741 mmHg 78%
22:00 +23°C° 0.4 mm 1 mps 741 mmHg 83%
23:00 +22°C° 0.9 mm 1 mps 741 mmHg 83%

Tomorrow, 16 August, Sunday

Time Temperature Precipitation Wind Pressure Humidity
00:00 +22°C° 0.9 mm 1 mps 741 mmHg 84%
01:00 +22°C° 0.9 mm 1 mps 741 mmHg 85%
02:00 +22°C° 1 mm 1 mps 741 mmHg 86%
03:00 +21°C° 1 mm 1 mps 741 mmHg 87%
04:00 +21°C° 1 mm 1 mps 741 mmHg 88%
05:00 +21°C° 0.3 mm 1 mps 741 mmHg 87%
06:00 +22°C° 0.3 mm 1 mps 741 mmHg 86%
07:00 +22°C° 0.3 mm 1 mps 741 mmHg 84%
08:00 +23°C° 0 mm 1 mps 741 mmHg 78%
09:00 +24°C° 0 mm 1 mps 742 mmHg 72%
10:00 +25°C° 0 mm 2 mps 742 mmHg 66%
11:00 +26°C° 0 mm 1 mps 742 mmHg 61%
12:00 +28°C° 0 mm 1 mps 742 mmHg 56%
13:00 +29°C° 0 mm 1 mps 741 mmHg 51%
14:00 +29°C° 0 mm 2 mps 741 mmHg 51%
15:00 +29°C° 0 mm 2 mps 741 mmHg 51%
16:00 +29°C° 0 mm 2 mps 741 mmHg 52%
17:00 +27°C° 0.1 mm 2 mps 741 mmHg 58%
18:00 +26°C° 0.1 mm 2 mps 741 mmHg 64%
19:00 +25°C° 0.1 mm 2 mps 740 mmHg 70%
20:00 +24°C° 0.3 mm 2 mps 741 mmHg 74%
21:00 +23°C° 0.3 mm 2 mps 741 mmHg 78%
22:00 +23°C° 0.3 mm 2 mps 741 mmHg 81%
23:00 +21°C° 0.1 mm 2 mps 741 mmHg 83%

Day after tomorrow, 17 August, Monday

Time Temperature Precipitation Wind Pressure Humidity
00:00 +21°C° 0.1 mm 2 mps 741 mmHg 85%
01:00 +21°C° 0.1 mm 2 mps 740 mmHg 87%
02:00 +21°C° 0 mm 1 mps 740 mmHg 88%
03:00 +21°C° 0 mm 1 mps 740 mmHg 90%
04:00 +20°C° 0 mm 1 mps 740 mmHg 91%
05:00 +21°C° 0 mm 1 mps 740 mmHg 89%
06:00 +21°C° 0 mm 2 mps 740 mmHg 87%
07:00 +21°C° 0 mm 2 mps 740 mmHg 85%
08:00 +24°C° 0 mm 2 mps 740 mmHg 78%
09:00 +26°C° 0 mm 3 mps 740 mmHg 71%
10:00 +27°C° 0 mm 3 mps 740 mmHg 65%
11:00 +29°C° 0 mm 4 mps 739 mmHg 59%
12:00 +30°C° 0 mm 4 mps 739 mmHg 53%
13:00 +33°C° 0 mm 5 mps 739 mmHg 47%
14:00 +32°C° 0.1 mm 5 mps 738 mmHg 48%
15:00 +32°C° 0.1 mm 4 mps 738 mmHg 50%
16:00 +32°C° 0.1 mm 4 mps 738 mmHg 51%
17:00 +30°C° 0.3 mm 3 mps 738 mmHg 56%
18:00 +28°C° 0.3 mm 3 mps 738 mmHg 61%
19:00 +27°C° 0.3 mm 2 mps 738 mmHg 66%
20:00 +26°C° 0.8 mm 3 mps 738 mmHg 70%
21:00 +23°C° 0.8 mm 4 mps 738 mmHg 74%
22:00 +22°C° 0.8 mm 5 mps 739 mmHg 78%
23:00 +22°C° 0.1 mm 6 mps 739 mmHg 80%

18 August, Tuesday

Time Temperature Precipitation Wind Pressure Humidity
00:00 +21°C° 0.1 mm 6 mps 739 mmHg 81%
01:00 +20°C° 0.1 mm 7 mps 739 mmHg 83%
02:00 +20°C° 0 mm 6 mps 740 mmHg 81%
03:00 +20°C° 0 mm 5 mps 740 mmHg 79%
04:00 +20°C° 0 mm 5 mps 740 mmHg 77%
05:00 +20°C° 0 mm 4 mps 740 mmHg 76%
06:00 +20°C° 0 mm 4 mps 740 mmHg 76%
07:00 +20°C° 0 mm 4 mps 740 mmHg 75%
08:00 +21°C° 0 mm 3 mps 740 mmHg 72%
09:00 +22°C° 0 mm 3 mps 740 mmHg 68%
10:00 +24°C° 0 mm 3 mps 741 mmHg 64%
11:00 +25°C° 0 mm 2 mps 740 mmHg 58%
12:00 +27°C° 0 mm 2 mps 740 mmHg 52%
13:00 +28°C° 0 mm 2 mps 740 mmHg 46%
14:00 +28°C° 0 mm 1 mps 740 mmHg 45%
15:00 +29°C° 0 mm 1 mps 739 mmHg 44%
16:00 +29°C° 0 mm 1 mps 739 mmHg 43%
17:00 +28°C° 0.1 mm 1 mps 739 mmHg 48%
18:00 +26°C° 0.1 mm 1 mps 739 mmHg 53%
19:00 +25°C° 0.1 mm 1 mps 739 mmHg 58%
20:00 +24°C° 0.6 mm 1 mps 739 mmHg 65%
21:00 +23°C° 0.6 mm 2 mps 739 mmHg 72%
22:00 +21°C° 0.6 mm 2 mps 739 mmHg 78%
23:00 +20°C° 0.3 mm 2 mps 739 mmHg 79%

19 August, Wednesday

Time Temperature Precipitation Wind Pressure Humidity
00:00 +20°C° 0.3 mm 2 mps 739 mmHg 79%
01:00 +20°C° 0.3 mm 2 mps 739 mmHg 80%
02:00 +20°C° 0.5 mm 2 mps 739 mmHg 80%
03:00 +19°C° 0.5 mm 2 mps 739 mmHg 81%
04:00 +20°C° 0.5 mm 1 mps 739 mmHg 81%
05:00 +20°C° 0.2 mm 1 mps 739 mmHg 80%
06:00 +21°C° 0.2 mm 1 mps 739 mmHg 78%
07:00 +21°C° 0.2 mm 1 mps 739 mmHg 76%
08:00 +23°C° 0 mm 1 mps 739 mmHg 69%
09:00 +24°C° 0 mm 1 mps 739 mmHg 62%
10:00 +26°C° 0 mm 1 mps 740 mmHg 55%
11:00 +26°C° 0.3 mm 1 mps 740 mmHg 54%
12:00 +27°C° 0.3 mm 1 mps 740 mmHg 53%
13:00 +28°C° 0.3 mm 1 mps 739 mmHg 52%
14:00 +27°C° 0.4 mm 2 mps 739 mmHg 54%
15:00 +27°C° 0.4 mm 2 mps 739 mmHg 55%
16:00 +27°C° 0.4 mm 3 mps 739 mmHg 57%
17:00 +26°C° 0.1 mm 3 mps 739 mmHg 61%
18:00 +25°C° 0.1 mm 3 mps 739 mmHg 65%
19:00 +22°C° 0.1 mm 3 mps 739 mmHg 68%
20:00 +22°C° 0.1 mm 3 mps 739 mmHg 71%
21:00 +21°C° 0.1 mm 3 mps 739 mmHg 74%
22:00 +21°C° 0.1 mm 3 mps 740 mmHg 76%
23:00 +20°C° 0 mm 4 mps 740 mmHg 77%

20 August, Thursday

Time Temperature Precipitation Wind Pressure Humidity
00:00 +20°C° 0 mm 4 mps 740 mmHg 78%
01:00 +20°C° 0 mm 4 mps 740 mmHg 79%
02:00 +19°C° 0 mm 4 mps 740 mmHg 80%
03:00 +19°C° 0 mm 4 mps 740 mmHg 81%
04:00 +19°C° 0 mm 4 mps 741 mmHg 82%
05:00 +19°C° 0 mm 4 mps 741 mmHg 80%
06:00 +19°C° 0 mm 4 mps 741 mmHg 78%
07:00 +20°C° 0 mm 4 mps 741 mmHg 76%
08:00 +21°C° 0 mm 4 mps 741 mmHg 70%
09:00 +23°C° 0 mm 4 mps 742 mmHg 64%
10:00 +25°C° 0 mm 4 mps 742 mmHg 59%
11:00 +26°C° 0.1 mm 3 mps 742 mmHg 55%
12:00 +27°C° 0.1 mm 3 mps 742 mmHg 51%
13:00 +28°C° 0.1 mm 3 mps 742 mmHg 48%
14:00 +28°C° 0 mm 3 mps 742 mmHg 47%
15:00 +28°C° 0 mm 3 mps 741 mmHg 46%
16:00 +28°C° 0 mm 3 mps 741 mmHg 46%
17:00 +27°C° 0 mm 2 mps 742 mmHg 50%
18:00 +25°C° 0 mm 2 mps 742 mmHg 54%
19:00 +24°C° 0 mm 1 mps 742 mmHg 59%
20:00 +23°C° 0 mm 1 mps 742 mmHg 61%
21:00 +23°C° 0 mm 1 mps 743 mmHg 64%
22:00 +22°C° 0 mm 1 mps 743 mmHg 67%
23:00 +21°C° 0 mm 1 mps 743 mmHg 68%
Show more